This is the latest recevied weather packets stored in our database for station/object WD4HMR. If no packets are shown the sender has not sent any weather packets the latest 10 day(s).
| Time | Temp. | Humidity | Pressure | Rain* | Wind** | Luminosity | Snow |
|---|---|---|---|---|---|---|---|
| 1778187735 | 20.56° C | 72% | 1014.9 hPa | 0 mm | - | - | - |
| 1778187631 | 20.56° C | 73% | 1015 hPa | 0 mm | - | - | - |
| 1778187252 | 20.56° C | 71% | 1015 hPa | 0 mm | - | - | - |
| 1778187211 | 20.56° C | 71% | 1014.9 hPa | 0 mm | - | - | - |
| 1778186791 | 20.56° C | 71% | 1015 hPa | 0 mm | - | - | - |
| 1778186772 | 20.56° C | 71% | 1015 hPa | 0 mm | - | - | - |
| 1778186371 | 21.11° C | 72% | 1015 hPa | 0 mm | - | - | - |
| 1778186292 | 21.11° C | 72% | 1015 hPa | 0 mm | - | - | - |
| 1778185952 | 21.11° C | 69% | 1015.1 hPa | 0 mm | - | - | - |
| 1778185813 | 21.11° C | 69% | 1015.1 hPa | 0 mm | - | - | - |
| 1778185532 | 20.56° C | 71% | 1015.1 hPa | 0 mm | - | - | - |
| 1778185333 | 20.56° C | 71% | 1015.1 hPa | 0 mm | - | - | - |
| 1778185112 | 20.56° C | 72% | 1015.1 hPa | 0 mm | - | - | - |
| 1778184852 | 20° C | 72% | 1015.1 hPa | 0 mm | - | - | - |
| 1778184693 | 20.56° C | 73% | 1015.2 hPa | 0 mm | - | - | - |
| 1778184272 | 20° C | 73% | 1015.2 hPa | 0 mm | - | - | - |
| 1778183892 | 19.44° C | 75% | 1015.2 hPa | 0 mm | - | - | - |
| 1778183851 | 19.44° C | 75% | 1015.2 hPa | 0 mm | - | - | - |
| 1778183431 | 19.44° C | 75% | 1015.3 hPa | 0 mm | - | - | - |
| 1778183412 | 19.44° C | 75% | 1015.3 hPa | 0 mm | - | - | - |
| 1778183011 | 19.44° C | 74% | 1015.2 hPa | 0 mm | - | - | - |
| 1778182932 | 19.44° C | 75% | 1015.1 hPa | 0 mm | - | - | - |
| 1778182591 | 19.44° C | 76% | 1015 hPa | 0 mm | - | - | - |
| 1778182452 | 19.44° C | 76% | 1015 hPa | 0 mm | - | - | - |
| 1778182171 | 19.44° C | 76% | 1015.2 hPa | 0 mm | - | - | - |
* Rain latest hour (hover to see other rain measurements)
** Current wind speed in m/s (hover to see current wind gust speed)